Flag for Lithuania Weather past 2 weeks in Vilnius, Lithuania

Now
48 °F

Scattered showers. Broken clouds.


Feels Like: 44 °F
Forecast: 29 / 54 °F
Wind: 10 mph from Northwest

Location: Vilnius Airport


UV Index: 3 (Moderate)

Visibility: N/A


Pressure: 30.18 "Hg

Humidity: 62%

Dew point: 36 °F

Location of VilniusLocation

Historic Weather in Vilnius

°F

Vilnius temperature yesterday

Maximum temperature yesterday: 54 °F (at 4:20 PM)
Minimum temperature yesterday: 37 °F (at 4:50 AM)
Average temperature yesterday: 46 °F

Past Weeks' High & Low Weather Summary

 TemperatureHumidityPressure
High57 °F (Apr 8, 1:50 PM)100% (Apr 7, 9:50 PM)30.27 "Hg (Apr 7, 9:50 PM)
Low23 °F (Apr 2, 12:50 AM)19% (Apr 6, 4:50 PM)29.56 "Hg (Apr 14, 2:50 PM)
Average42 °F67%29.93 "Hg
* Reported Apr 1 12:20 PM — Apr 16 12:50 PM, Vilnius, Weather by CustomWeather, © 2014

Note: Actual official high and low records may vary slightly from our data, if they occured in-between our weather recording intervals... More about our weather records

Advertising

Historic Weather Conditions — Data for Previous 24 hours

 ConditionsComfort  
Time TempWeatherWind HumidityBarometerVisibility
12:50 PM
Apr 16
46 °FPartly sunny.10 mph66%30.18 "HgN/A
12:20 PM45 °FBroken clouds.13 mph76%30.18 "HgN/A
11:50 AM45 °FBroken clouds.12 mph76%30.18 "HgN/A
11:20 AM45 °FBroken clouds.12 mph76%30.15 "HgN/A
10:50 AM45 °FPartly sunny.9 mph71%30.15 "HgN/A
10:20 AM45 °FPartly sunny.10 mph71%30.12 "HgN/A
9:50 AM43 °FPartly sunny.8 mph76%30.12 "HgN/A
9:20 AM41 °FLow clouds.9 mph87%30.12 "Hg4 mi
8:50 AM39 °FFog.10 mph87%30.09 "Hg2 mi
8:20 AM37 °FFog.14 mph93%30.09 "Hg2 mi
7:50 AM37 °FFog.8 mph93%30.09 "Hg2 mi
7:20 AM36 °FFog.9 mph100%30.07 "Hg2 mi
6:50 AM36 °FFog.10 mph100%30.07 "Hg2 mi
6:20 AM36 °FFog.10 mph93%30.04 "Hg2 mi
5:50 AM36 °FFog.9 mph93%30.04 "Hg2 mi
5:20 AM36 °FFog.8 mph93%30.01 "Hg2 mi
4:50 AM36 °FPassing clouds.6 mph93%30.01 "HgN/A
4:20 AM36 °FPassing clouds.6 mph93%30.01 "HgN/A
3:50 AM36 °FClear.8 mph93%30.01 "Hg10 mi
1:50 AM37 °FClear.9 mph87%29.95 "Hg10 mi
1:20 AM39 °FClear.9 mph81%29.95 "Hg10 mi
12:50 AM39 °FClear.9 mph81%29.95 "Hg10 mi
12:20 AM41 °FClear.9 mph76%29.95 "Hg10 mi
11:50 PM
Apr 15
41 °FClear.8 mph76%29.92 "Hg10 mi
11:20 PM43 °FClear.8 mph71%29.92 "Hg10 mi
10:50 PM41 °FClear.8 mph70%29.89 "Hg10 mi
10:20 PM43 °FClear.12 mph66%29.89 "Hg10 mi
9:50 PM45 °FClear.9 mph57%29.89 "Hg10 mi
9:20 PM45 °FSunny.7 mph53%29.86 "Hg10 mi
8:50 PM43 °FBroken clouds.9 mph53%29.86 "HgN/A
8:20 PM48 °FBroken clouds.12 mph43%29.83 "HgN/A
7:50 PM50 °FBroken clouds.13 mph40%29.80 "HgN/A
7:20 PM52 °FBroken clouds.12 mph41%29.80 "HgN/A
6:50 PM52 °FBroken clouds.12 mph44%29.80 "HgN/A
6:20 PM52 °FBroken clouds.13 mph44%29.77 "HgN/A
5:50 PM52 °FBroken clouds.13 mph44%29.77 "HgN/A
5:20 PM52 °FBroken clouds.12 mph41%29.77 "HgN/A
4:50 PM52 °FBroken clouds.13 mph44%29.74 "HgN/A
4:20 PM54 °FBroken clouds.8 mph38%29.74 "HgN/A
3:50 PM50 °FBroken clouds.10 mph47%29.74 "HgN/A
3:20 PM50 °FBroken clouds.10 mph50%29.74 "HgN/A
2:50 PM52 °FBroken clouds.12 mph50%29.71 "HgN/A
2:20 PM50 °FScattered showers. Broken clouds.10 mph58%29.71 "Hg5 mi
Weather by CustomWeather, © 2014

See weather overview